{"data":{"norad_id":58234,"intl_designator":"2023-171E","name":"STARLINK-30860","alt_names":[],"object_type":"PAYLOAD","status":"ACTIVE","operator":null,"country":"US","launch_date":"2023-11-08","launch_site_code":"AFETR","launch_vehicle":null,"mission":null,"orbit_class":"UNKNOWN","rcs_meters":null,"size_class":null,"mass_kg":null,"dimensions":null,"purposes":["comms"],"wikipedia_slug":null,"has_3d_model":false,"image_url":null,"decayed_at":null,"tle_current":{"epoch":"2026-05-25T05:16:21.100224Z","epoch_age_seconds":50000,"freshness":"FRESH","line1":"1 58234U 23171E   26145.21968866 -.00000384  00000+0 -44246-5 0  9991","line2":"2 58234  43.0007 212.6227 0001090 277.7184  82.3544 15.27578297141449","mean_motion":15.27578297,"eccentricity":0.000109,"inclination_deg":43.0007,"raan_deg":212.6227,"arg_perigee_deg":277.7184,"mean_anomaly_deg":82.3544,"bstar":-4.4246e-6,"rev_number":14144,"period_min":94.266853805661,"perigee_km":482.30632559874,"apogee_km":483.80206527934,"semimajor_km":6861.191195439,"source":"CELESTRAK","updated_at":"2026-05-25T13:38:18.579988Z"}}}